Sauk Centre, MN

9:34 PM CDT on July 29, 2016 (GMT -0500)
Sauk Centre

Weather History for KD39 - May, 2013

Change the Weather History Date:

Sunday, May 26, 2013

  Actual Average (KGHW) Record (KGHW)
Temperature  
Mean Temperature 52 °F -  
Max Temperature 53 °F 71 °F 90 °F (1988)
Min Temperature 50 °F 47 °F 33 °F (1970)
Degree Days  
Heating Degree Days 14    
Growing Degree Days 2 (Base 50)    
Moisture  
Dew Point 43 °F    
Average Humidity 70    
Maximum Humidity 82    
Minimum Humidity 62    
Precipitation  
Precipitation 0.00 in - - ()
Sea Level Pressure  
Sea Level Pressure 30.13 in    
Wind  
Wind Speed 12 mph (ESE)    
Max Wind Speed 20 mph    
Max Gust Speed 26 mph    
Visibility 10 miles    
Events      
Averages and records for this station are not official NWS values.
T = Trace of Precipitation, MM = Missing Value Source: NWS Daily Summary

Daily Weather History Graph

Daily Weather History Graph

Search for Another Location

Airport or City:

Trip Planner

Search our weather history database for the weather conditions in past years. The results will help you decide how hot, cold, wet, or windy it might be!

Date:

Astronomy

May. 26, 2013 Rise Set
Actual Time 5:37 AM CDT 8:56 PM CDT
Civil Twilight 5:01 AM CDT 9:33 PM CDT
Nautical Twilight 4:13 AM CDT 10:20 PM CDT
Astronomical Twilight 3:14 AM CDT 11:21 PM CDT
Moon 10:43 PM CDT (5/26) 7:08 AM CDT (5/26)
Length of Visible Light 16h 32m
Length of Day
15h 19m
Waning Gibbous, 96% of the Moon is Illuminated
May 26
Waning Gibbous
May 31
Last Quarter
Jun 8
New
Jun 16
First Quarter
Jun 23
Full

Hourly Weather History & Observations

Time (CDT) Temp. Dew Point Humidity Pressure Visibility Wind Dir Wind Speed Gust Speed Precip Events Conditions
12:15 AM 51.8 °F 42.8 °F 71% 30.19 in 10.0 mi ESE 12.7 mph - N/A   Overcast
12:35 AM 51.8 °F 44.6 °F 76% 30.18 in 10.0 mi ESE 11.5 mph - N/A   Overcast
12:55 AM 51.8 °F 44.6 °F 76% 30.17 in 10.0 mi ESE 11.5 mph 17.3 mph N/A   Overcast
1:15 AM 51.8 °F 44.6 °F 76% 30.18 in 10.0 mi ESE 9.2 mph - N/A   Overcast
1:35 AM 51.8 °F 44.6 °F 76% 30.19 in 10.0 mi ESE 11.5 mph - N/A   Overcast
1:55 AM 51.8 °F 44.6 °F 76% 30.18 in 10.0 mi ESE 11.5 mph - N/A   Overcast
2:15 AM 51.8 °F 44.6 °F 76% 30.17 in 10.0 mi ESE 10.4 mph 17.3 mph N/A   Overcast
2:35 AM 50.0 °F 42.8 °F 76% 30.16 in 10.0 mi ESE 12.7 mph - N/A   Overcast
2:55 AM 50.0 °F 41.0 °F 71% 30.14 in 10.0 mi ESE 12.7 mph 18.4 mph N/A   Scattered Clouds
3:15 AM 50.0 °F 41.0 °F 71% 30.12 in 10.0 mi East 9.2 mph - N/A   Clear
3:35 AM 50.0 °F 41.0 °F 71% 30.14 in 10.0 mi ESE 9.2 mph - N/A   Scattered Clouds
3:55 AM 50.0 °F 41.0 °F 71% 30.16 in 10.0 mi East 6.9 mph - N/A   Overcast
4:15 AM 50.0 °F 42.8 °F 76% 30.17 in 10.0 mi ESE 10.4 mph - N/A   Overcast
4:35 AM 50.0 °F 42.8 °F 76% 30.18 in 10.0 mi ESE 9.2 mph - N/A   Overcast
4:55 AM 50.0 °F 42.8 °F 76% 30.18 in 10.0 mi ESE 6.9 mph - N/A   Mostly Cloudy
5:15 AM 50.0 °F 42.8 °F 76% 30.19 in 10.0 mi ESE 9.2 mph - N/A   Overcast
5:35 AM 50.0 °F 42.8 °F 76% 30.18 in 10.0 mi ESE 8.1 mph - N/A   Overcast
5:55 AM 50.0 °F 42.8 °F 76% 30.16 in 10.0 mi East 9.2 mph 16.1 mph N/A   Overcast
6:15 AM 50.0 °F 41.0 °F 71% 30.15 in 10.0 mi East 11.5 mph 16.1 mph N/A   Mostly Cloudy
6:35 AM 50.0 °F 41.0 °F 71% 30.16 in 10.0 mi East 9.2 mph 18.4 mph N/A   Mostly Cloudy
6:55 AM 50.0 °F 41.0 °F 71% 30.17 in 10.0 mi ESE 9.2 mph - N/A   Mostly Cloudy
7:15 AM 50.0 °F 41.0 °F 71% 30.17 in 10.0 mi ESE 11.5 mph 18.4 mph N/A   Overcast
7:35 AM 50.0 °F 41.0 °F 71% 30.17 in 10.0 mi ESE 12.7 mph 18.4 mph N/A   Overcast
7:55 AM 50.0 °F 41.0 °F 71% 30.17 in 10.0 mi East 10.4 mph - N/A   Mostly Cloudy
8:15 AM 51.8 °F 41.0 °F 67% 30.17 in 10.0 mi East 12.7 mph - N/A   Overcast
8:35 AM 51.8 °F 41.0 °F 67% 30.13 in 10.0 mi East 17.3 mph 23.0 mph N/A   Overcast
8:55 AM 51.8 °F 41.0 °F 67% 30.11 in 10.0 mi East 18.4 mph 23.0 mph N/A   Overcast
9:15 AM 51.8 °F 41.0 °F 67% 30.12 in 10.0 mi ESE 12.7 mph 24.2 mph N/A   Overcast
9:35 AM 53.6 °F 41.0 °F 62% 30.13 in 10.0 mi East 12.7 mph 20.7 mph N/A   Overcast
9:55 AM 51.8 °F 41.0 °F 67% 30.15 in 10.0 mi ESE 13.8 mph 19.6 mph N/A   Overcast
10:15 AM 53.6 °F 41.0 °F 62% 30.16 in 10.0 mi ESE 12.7 mph 18.4 mph N/A   Overcast
10:35 AM 53.6 °F 42.8 °F 67% 30.16 in 10.0 mi ESE 12.7 mph - N/A   Overcast
10:55 AM 53.6 °F 42.8 °F 67% 30.17 in 10.0 mi SE 10.4 mph - N/A   Overcast
11:15 AM 53.6 °F 42.8 °F 67% 30.16 in 10.0 mi SE 9.2 mph - N/A   Overcast
11:35 AM 53.6 °F 41.0 °F 62% 30.16 in 10.0 mi SE 15.0 mph - N/A   Overcast
11:55 AM 53.6 °F 42.8 °F 67% 30.15 in 10.0 mi SE 15.0 mph 21.9 mph N/A   Overcast
12:15 PM 53.6 °F 42.8 °F 67% 30.14 in 10.0 mi ESE 13.8 mph 24.2 mph N/A   Overcast
12:35 PM 53.6 °F 41.0 °F 62% 30.14 in 10.0 mi ESE 12.7 mph - N/A   Overcast
12:55 PM 53.6 °F 41.0 °F 62% 30.14 in 10.0 mi ESE 16.1 mph 20.7 mph N/A   Overcast
1:15 PM 53.6 °F 41.0 °F 62% 30.14 in 10.0 mi ESE 15.0 mph 19.6 mph N/A   Overcast
1:35 PM 53.6 °F 41.0 °F 62% 30.13 in 10.0 mi ESE 19.6 mph 25.3 mph N/A   Overcast
1:55 PM 53.6 °F 41.0 °F 62% 30.11 in 10.0 mi ESE 19.6 mph 24.2 mph N/A   Overcast
2:15 PM 53.6 °F 41.0 °F 62% 30.10 in 10.0 mi ESE 17.3 mph 26.5 mph N/A   Overcast
2:35 PM 53.6 °F 41.0 °F 62% 30.11 in 10.0 mi ESE 18.4 mph - N/A   Overcast
2:55 PM 53.6 °F 41.0 °F 62% 30.11 in 10.0 mi ESE 17.3 mph 24.2 mph N/A   Overcast
3:15 PM 53.6 °F 41.0 °F 62% 30.11 in 10.0 mi ESE 11.5 mph 17.3 mph N/A   Overcast
3:35 PM 53.6 °F 42.8 °F 67% 30.11 in 10.0 mi East 10.4 mph 16.1 mph N/A   Overcast
3:55 PM 53.6 °F 42.8 °F 67% 30.11 in 10.0 mi ESE 12.7 mph 18.4 mph N/A   Overcast
4:15 PM 53.6 °F 42.8 °F 67% 30.12 in 10.0 mi ESE 8.1 mph 21.9 mph N/A   Overcast
4:35 PM 51.8 °F 44.6 °F 76% 30.12 in 10.0 mi ESE 13.8 mph 19.6 mph N/A   Overcast
4:55 PM 50.0 °F 44.6 °F 82% 30.11 in 7.0 mi East 9.2 mph - N/A   Overcast
5:15 PM 51.8 °F 44.6 °F 76% 30.10 in 10.0 mi East 15.0 mph - N/A   Overcast
5:35 PM 53.6 °F 44.6 °F 72% 30.09 in 10.0 mi East 13.8 mph 21.9 mph N/A   Overcast
5:55 PM 53.6 °F 44.6 °F 72% 30.09 in 10.0 mi East 17.3 mph 25.3 mph N/A   Overcast
6:15 PM 53.6 °F 44.6 °F 72% 30.09 in 10.0 mi East 12.7 mph 21.9 mph N/A   Overcast
6:35 PM 53.6 °F 44.6 °F 72% 30.09 in 10.0 mi East 10.4 mph 16.1 mph N/A   Overcast
6:55 PM 53.6 °F 44.6 °F 72% 30.10 in 10.0 mi East 11.5 mph 18.4 mph N/A   Overcast
7:15 PM 53.6 °F 42.8 °F 67% 30.11 in 10.0 mi ESE 12.7 mph 16.1 mph N/A   Overcast
7:35 PM 53.6 °F 44.6 °F 72% 30.11 in 10.0 mi ESE 9.2 mph - N/A   Overcast
7:55 PM 53.6 °F 42.8 °F 67% 30.11 in 10.0 mi ESE 12.7 mph - N/A   Overcast
8:15 PM 53.6 °F 42.8 °F 67% 30.10 in 10.0 mi ESE 11.5 mph - N/A   Overcast
8:35 PM 53.6 °F 44.6 °F 72% 30.09 in 10.0 mi ESE 11.5 mph - N/A   Overcast
8:55 PM 53.6 °F 44.6 °F 72% 30.09 in 10.0 mi ESE 10.4 mph - N/A   Overcast
9:15 PM 53.6 °F 44.6 °F 72% 30.09 in 10.0 mi ESE 10.4 mph - N/A   Overcast
9:35 PM 53.6 °F 44.6 °F 72% 30.09 in 10.0 mi ESE 9.2 mph - N/A   Overcast
9:55 PM 53.6 °F 46.4 °F 77% 30.09 in 10.0 mi ESE 10.4 mph - N/A   Overcast
10:15 PM 53.6 °F 46.4 °F 77% 30.09 in 10.0 mi ESE 10.4 mph - N/A   Overcast
10:35 PM 53.6 °F 46.4 °F 77% 30.08 in 10.0 mi East 9.2 mph - N/A   Overcast
10:55 PM 53.6 °F 46.4 °F 77% 30.06 in 10.0 mi East 10.4 mph - N/A   Overcast
11:15 PM 53.6 °F 44.6 °F 72% 30.03 in 10.0 mi East 9.2 mph 16.1 mph N/A   Overcast
11:35 PM 53.6 °F 44.6 °F 72% 30.02 in 10.0 mi East 9.2 mph 17.3 mph N/A   Overcast
11:55 PM 53.6 °F 44.6 °F 72% 30.03 in 10.0 mi ESE 10.4 mph - N/A   Overcast